Dauntless Aviation
Greetings, Guest! To participate, [sign up for a free account] or [log in]
Airports Europe France
LFIY

Saint Jean d'Angely

FRANCE

Airport Info
Edit

Location

Latitude / Longitude: 45°57'59"N / 0°31'31"W
  45°57.984'N / 0°31.518'W
  45.9664 / -0.5253

Runway Information

Runway 10 /28

Dimensions: 2789 x 164 ft.
Surface: U
 
Runway 10
Runway 28
Latitude: 45.966636 45.965728
Longitude: -0.528086 -0.518369
Elevation: 243 ft. 243 ft.
Runway true heading: 95.7 275.7
 

Instrument Procedures

IAPs (Instrument Approach Procedures)

  Visual Approch Chart
Satellite photo at:
Airport distance calculator
From:
Weather Reports

METAR

LFBG
20.0nm SE
LFBG 260200Z AUTO 00000KT 4700 BR NSC ///// Q1033
LFBH
27.2nm W
LFBH 260200Z AUTO 20003KT 9999 OVC040 04/02 Q1033
LFBU
34.5nm E
LFBU 260200Z AUTO 25004KT 2700 BR NSC M01/M01 Q1032

TAF

LFBG
20.0nm SE
TAF LFBG 252300Z 2600/2624 23003KT CAVOK PROB30 TEMPO 2600/2605 1000 FZFG BECMG 2613/2615 BKN015 BECMG 2616/2618 5000 BR BKN005 BKN015 TEMPO 2614/2623 3000 -RA BR
LFBH
27.2nm W
TAF LFBH 252300Z 2600/2624 VRB02KT 9999 BKN040 BECMG 2609/2612 24006KT 5000 -RA BKN015 TEMPO 2612/2618 3000 RA BKN005 BKN015 BECMG 2621/2624 36012KT 9999 NSW SCT020
LFBU
34.5nm E
TAF LFBU 251700Z 2518/2618 32003KT 9999 BKN035 BECMG 2519/2521 MIFG TEMPO 2521/2610 3000 BCFG PROB30 TEMPO 2600/2609 0200 FZFG VV/// BECMG 2609/2611 19010KT -RA BKN010 OVC030 TEMPO 2612/2615 3000 -RA TEMPO 2615/2618 1500 RADZ BKN004 BKN008 BKN015
Safelog

 

Dauntless Aviation

© 2007-2015 Dauntless Aviation, all rights reserved
Information provided via PilotNav comes from a variety of official and unofficial data sources. As errors are possible, do not use PilotNav for primary flight planning purposes. Verify any information that you receive via PilotNav with current and canonical charts and other official documents. The material in this database is subject to database copyrights held by Dauntless Aviation and may not be copied without the express permission of Dauntless Aviation - licenses for use of part of all of this data are available for purchase; enquire via the Dauntless Aviation helpdesk. A number of mechanisms and markers exist in the database to protect against and identify infringement / copyright. Automated queries against this website are stictly prohibited, and all activity is logged and analyzed.